TimeCST,TemperatureF,Dew PointF,Humidity,Sea Level PressureIn,VisibilityMPH,Wind Direction,Wind SpeedMPH,Gust SpeedMPH,PrecipitationIn,Events,Conditions,WindDirDegrees,DateUTC
12:15 AM,24.8,19.4,80,29.51,10.0,SE,5.8,-,N/A,,Overcast,140,2013-02-18 06:15:00
12:35 AM,23.0,19.4,86,29.49,10.0,SE,9.2,-,N/A,,Overcast,130,2013-02-18 06:35:00
12:53 AM,23.0,19.4,86,29.50,10.0,SE,9.2,-,N/A,,Overcast,140,2013-02-18 06:53:00
1:15 AM,24.8,19.4,80,29.48,10.0,SSE,8.1,-,N/A,,Overcast,150,2013-02-18 07:15:00
1:34 AM,24.8,19.4,80,29.49,10.0,SSE,8.1,-,N/A,,Overcast,160,2013-02-18 07:34:00
1:53 AM,24.8,19.4,80,29.48,10.0,SSE,8.1,-,N/A,,Overcast,150,2013-02-18 07:53:00
2:15 AM,24.8,19.4,80,29.47,10.0,SSE,6.9,-,N/A,,Overcast,150,2013-02-18 08:15:00
2:34 AM,24.8,19.4,80,29.48,10.0,South,4.6,-,N/A,,Overcast,170,2013-02-18 08:34:00
2:53 AM,24.8,19.4,80,29.46,10.0,SSE,5.8,-,N/A,,Overcast,150,2013-02-18 08:53:00
3:15 AM,24.8,19.4,80,29.46,10.0,SSE,5.8,-,N/A,,Overcast,160,2013-02-18 09:15:00
3:35 AM,24.8,19.4,80,29.47,10.0,Calm,Calm,-,N/A,,Overcast,0,2013-02-18 09:35:00
3:52 AM,23.0,19.4,86,29.46,10.0,SSE,3.5,-,N/A,,Overcast,160,2013-02-18 09:52:00
4:15 AM,24.8,21.2,86,29.45,10.0,South,3.5,-,N/A,,Overcast,170,2013-02-18 10:15:00
4:35 AM,24.8,21.2,86,29.46,10.0,SSW,4.6,-,N/A,,Overcast,210,2013-02-18 10:35:00
4:53 AM,24.8,21.2,86,29.46,10.0,SSW,5.8,-,N/A,,Overcast,210,2013-02-18 10:53:00
5:14 AM,24.8,21.2,86,29.46,7.0,SW,5.8,-,N/A,,Overcast,220,2013-02-18 11:14:00
5:35 AM,24.8,21.2,86,29.46,7.0,WSW,4.6,-,N/A,,Overcast,240,2013-02-18 11:35:00
5:53 AM,24.8,23.0,93,29.47,5.0,West,5.8,-,N/A,,Overcast,270,2013-02-18 11:53:00
6:14 AM,26.6,24.8,93,29.47,3.0,West,8.1,-,N/A,,Overcast,280,2013-02-18 12:14:00
6:34 AM,26.6,24.8,93,29.47,3.0,WNW,11.5,18.4,N/A,,Overcast,290,2013-02-18 12:34:00
6:53 AM,24.8,23.0,93,29.48,5.0,WNW,15.0,23.0,N/A,,Overcast,300,2013-02-18 12:53:00
7:15 AM,21.2,19.4,93,29.49,7.0,WNW,17.3,25.3,N/A,,Overcast,290,2013-02-18 13:15:00
7:35 AM,21.2,17.6,86,29.49,7.0,NW,17.3,20.7,N/A,,Overcast,310,2013-02-18 13:35:00
8:14 AM,17.6,14.0,86,29.51,10.0,WNW,17.3,25.3,N/A,,Overcast,290,2013-02-18 14:14:00
8:35 AM,15.8,12.2,86,29.52,10.0,WNW,18.4,27.6,N/A,,Overcast,300,2013-02-18 14:35:00
8:53 AM,15.8,10.4,79,29.53,10.0,WNW,13.8,19.6,N/A,,Overcast,290,2013-02-18 14:53:00
9:15 AM,15.8,10.4,79,29.54,10.0,WNW,19.6,24.2,N/A,,Overcast,300,2013-02-18 15:15:00
9:34 AM,14.0,10.4,86,29.55,10.0,WNW,17.3,24.2,N/A,,Overcast,300,2013-02-18 15:34:00
9:52 AM,12.2,8.6,85,29.57,10.0,WNW,17.3,24.2,N/A,,Overcast,290,2013-02-18 15:52:00
10:14 AM,12.2,6.8,79,29.58,5.0,WNW,17.3,25.3,N/A,Snow,Light Snow,290,2013-02-18 16:14:00
10:35 AM,10.4,6.8,85,29.60,7.0,WNW,18.4,24.2,N/A,Snow,Light Snow,300,2013-02-18 16:35:00
10:53 AM,10.4,6.8,85,29.61,5.0,WNW,19.6,26.5,N/A,Snow,Light Snow,300,2013-02-18 16:53:00
11:15 AM,10.4,5.0,79,29.62,7.0,WNW,20.7,24.2,N/A,Snow,Light Snow,300,2013-02-18 17:15:00
11:35 AM,10.4,3.2,73,29.63,10.0,WNW,18.4,25.3,N/A,,Overcast,290,2013-02-18 17:35:00
11:53 AM,10.4,3.2,73,29.63,7.0,NW,19.6,25.3,N/A,,Overcast,310,2013-02-18 17:53:00
12:15 PM,10.4,3.2,73,29.64,7.0,WNW,23.0,28.8,N/A,,Overcast,300,2013-02-18 18:15:00
12:35 PM,8.6,3.2,79,29.65,7.0,WNW,19.6,25.3,N/A,,Overcast,300,2013-02-18 18:35:00
12:53 PM,10.4,3.2,73,29.65,7.0,WNW,20.7,27.6,N/A,,Overcast,300,2013-02-18 18:53:00
1:15 PM,8.6,3.2,79,29.65,7.0,NW,24.2,31.1,N/A,,Overcast,310,2013-02-18 19:15:00
1:34 PM,8.6,3.2,79,29.66,5.0,WNW,20.7,31.1,N/A,,Haze,300,2013-02-18 19:34:00
1:53 PM,8.6,1.4,73,29.66,5.0,NW,23.0,29.9,N/A,,Haze,310,2013-02-18 19:53:00
2:15 PM,8.6,1.4,73,29.67,7.0,NW,25.3,28.8,N/A,,Overcast,320,2013-02-18 20:15:00
2:35 PM,8.6,1.4,73,29.68,10.0,NW,19.6,26.5,N/A,,Overcast,310,2013-02-18 20:35:00
2:53 PM,8.6,1.4,73,29.69,7.0,WNW,19.6,27.6,N/A,,Overcast,300,2013-02-18 20:53:00
3:14 PM,6.8,-0.4,72,29.70,5.0,WNW,25.3,-,N/A,,Haze,300,2013-02-18 21:14:00
3:35 PM,6.8,-0.4,72,29.71,7.0,NW,21.9,28.8,N/A,,Scattered Clouds,310,2013-02-18 21:35:00
3:52 PM,6.8,-0.4,72,29.73,7.0,WNW,23.0,28.8,N/A,,Mostly Cloudy,300,2013-02-18 21:52:00
4:15 PM,5.0,-2.2,72,29.74,10.0,WNW,19.6,23.0,N/A,,Mostly Cloudy,300,2013-02-18 22:15:00
4:35 PM,3.2,-2.2,78,29.75,10.0,NW,19.6,26.5,N/A,,Mostly Cloudy,310,2013-02-18 22:35:00
4:52 PM,3.2,-4.0,72,29.76,10.0,NW,20.7,27.6,N/A,,Scattered Clouds,310,2013-02-18 22:52:00
5:14 PM,1.4,-4.0,78,29.77,10.0,NW,20.7,-,N/A,,Scattered Clouds,310,2013-02-18 23:14:00
5:35 PM,1.4,-5.8,72,29.79,10.0,NW,17.3,-,N/A,,Mostly Cloudy,310,2013-02-18 23:35:00
5:52 PM,-0.4,-5.8,78,29.80,10.0,NW,16.1,24.2,N/A,,Scattered Clouds,310,2013-02-18 23:52:00
6:15 PM,-0.4,-5.8,78,29.81,10.0,NW,17.3,-,N/A,,Mostly Cloudy,310,2013-02-19 00:15:00
6:35 PM,-0.4,-5.8,78,29.81,5.0,NW,17.3,21.9,N/A,Snow,Light Snow,310,2013-02-19 00:35:00
7:15 PM,-0.4,-5.8,78,29.83,5.0,NW,15.0,-,N/A,,Haze,310,2013-02-19 01:15:00
7:35 PM,-0.4,-5.8,78,29.84,7.0,WNW,17.3,23.0,N/A,,Overcast,300,2013-02-19 01:35:00
7:53 PM,-0.4,-5.8,78,29.84,5.0,NW,18.4,27.6,N/A,Snow,Light Snow,310,2013-02-19 01:53:00
8:14 PM,-0.4,-5.8,78,29.84,7.0,NW,17.3,25.3,N/A,Snow,Light Snow,310,2013-02-19 02:14:00
8:35 PM,-0.4,-5.8,78,29.84,7.0,NW,16.1,21.9,N/A,Snow,Light Snow,320,2013-02-19 02:35:00
8:52 PM,-0.4,-5.8,78,29.85,7.0,NW,16.1,25.3,N/A,,Scattered Clouds,320,2013-02-19 02:52:00
9:15 PM,-2.2,-7.6,78,29.85,5.0,NW,17.3,21.9,N/A,Snow,Light Snow,320,2013-02-19 03:15:00
9:35 PM,-2.2,-7.6,78,29.86,10.0,NW,17.3,21.9,N/A,,Clear,310,2013-02-19 03:35:00
9:52 PM,-2.2,-7.6,78,29.87,10.0,NW,16.1,21.9,N/A,,Clear,320,2013-02-19 03:52:00
10:14 PM,-2.2,-7.6,78,29.88,10.0,NW,17.3,-,N/A,,Scattered Clouds,310,2013-02-19 04:14:00
10:35 PM,-4.0,-9.4,78,29.89,10.0,NW,15.0,21.9,N/A,,Scattered Clouds,320,2013-02-19 04:35:00
10:52 PM,-4.0,-9.4,78,29.89,10.0,NW,17.3,-,N/A,,Mostly Cloudy,320,2013-02-19 04:52:00
11:15 PM,-2.2,-7.6,78,29.90,10.0,NW,17.3,20.7,N/A,,Overcast,320,2013-02-19 05:15:00
11:35 PM,-2.2,-7.6,78,29.91,10.0,NW,18.4,21.9,N/A,,Overcast,320,2013-02-19 05:35:00
11:53 PM,-2.2,-7.6,78,29.92,7.0,NW,16.1,24.2,N/A,,Overcast,320,2013-02-19 05:53:00